owner,sensor,date,latitude,longitude,vertical_datum,sea_water_practical_salinity,qcFlag 
SCCF RECON,ioos:station:SCCF:51:1,2009-05-01T00:00:00Z,26.5545,-82.1715,1.96,36.81,1111122 
SCCF RECON,ioos:station:SCCF:51:1,2009-05-01T01:00:00Z,26.5545,-82.1715,1.86,36.78,1111122 
SCCF RECON,ioos:station:SCCF:51:1,2009-05-01T02:00:00Z,26.5545,-82.1715,1.76,36.72,1111122 
SCCF RECON,ioos:station:SCCF:51:1,2009-05-01T03:00:00Z,26.5545,-82.1715,1.65,36.66,1111122 
SCCF RECON,ioos:station:SCCF:51:1,2009-05-01T04:00:00Z,26.5545,-82.1715,1.555,36.66,1111122 
SCCF RECON,ioos:station:SCCF:51:1,2009-05-01T05:00:00Z,26.5545,-82.1715,1.468,36.74,1111122 
SCCF RECON,ioos:station:SCCF:51:1,2009-05-01T06:00:00Z,26.5545,-82.1715,1.416,36.8,1111122 
SCCF RECON,ioos:station:SCCF:51:1,2009-05-01T07:00:00Z,26.5545,-82.1715,1.444,36.8,1111122 
SCCF RECON,ioos:station:SCCF:51:1,2009-05-01T08:00:00Z,26.5545,-82.1715,1.521,36.74,1111122 
SCCF RECON,ioos:station:SCCF:51:1,2009-05-01T09:00:00Z,26.5545,-82.1715,1.621,36.72,1111122 
SCCF RECON,ioos:station:SCCF:51:1,2009-05-01T10:00:00Z,26.5545,-82.1715,1.706,36.82,1111122 
SCCF RECON,ioos:station:SCCF:51:1,2009-05-01T11:00:00Z,26.5545,-82.1715,1.793,36.71,1111122 
SCCF RECON,ioos:station:SCCF:51:1,2009-05-01T12:00:00Z,26.5545,-82.1715,1.859,36.85,1111122 
SCCF RECON,ioos:station:SCCF:51:1,2009-05-01T13:00:00Z,26.5545,-82.1715,1.899,36.81,1111122 
SCCF RECON,ioos:station:SCCF:51:1,2009-05-01T14:00:00Z,26.5545,-82.1715,1.909,36.82,1111122 
SCCF RECON,ioos:station:SCCF:51:1,2009-05-01T15:00:00Z,26.5545,-82.1715,1.892,36.86,1111122 
SCCF RECON,ioos:station:SCCF:51:1,2009-05-01T16:00:00Z,26.5545,-82.1715,1.866,36.87,1111122 
SCCF RECON,ioos:station:SCCF:51:1,2009-05-01T17:00:00Z,26.5545,-82.1715,1.841,36.83,1111122 
SCCF RECON,ioos:station:SCCF:51:1,2009-05-01T18:00:00Z,26.5545,-82.1715,1.865,36.81,1111122 
SCCF RECON,ioos:station:SCCF:51:1,2009-05-01T19:00:00Z,26.5545,-82.1715,1.91,36.83,1111122 
SCCF RECON,ioos:station:SCCF:51:1,2009-05-01T20:00:00Z,26.5545,-82.1715,1.951,36.83,1111122 
SCCF RECON,ioos:station:SCCF:51:1,2009-05-01T21:00:00Z,26.5545,-82.1715,1.991,36.82,1111122 
SCCF RECON,ioos:station:SCCF:51:1,2009-05-01T22:00:00Z,26.5545,-82.1715,2.02,36.84,1111122 
SCCF RECON,ioos:station:SCCF:51:1,2009-05-01T23:00:00Z,26.5545,-82.1715,2.02,36.83,1111122 
SCCF RECON,ioos:station:SCCF:51:1,2009-05-02T00:00:00Z,26.5545,-82.1715,1.98,36.83,1111122 
SCCF RECON,ioos:station:SCCF:51:1,2009-05-02T01:00:00Z,26.5545,-82.1715,1.93,36.82,1111122 
SCCF RECON,ioos:station:SCCF:51:1,2009-05-02T02:00:00Z,26.5545,-82.1715,1.85,36.81,1111122 
SCCF RECON,ioos:station:SCCF:51:1,2009-05-02T03:00:00Z,26.5545,-82.1715,1.755,36.76,1111122 
SCCF RECON,ioos:station:SCCF:51:1,2009-05-02T04:00:00Z,26.5545,-82.1715,1.64,36.76,1111122 
SCCF RECON,ioos:station:SCCF:51:1,2009-05-02T05:00:00Z,26.5545,-82.1715,1.54,36.78,1111122 
SCCF RECON,ioos:station:SCCF:51:1,2009-05-02T06:00:00Z,26.5545,-82.1715,1.45,36.8,1111122 
SCCF RECON,ioos:station:SCCF:51:1,2009-05-02T07:00:00Z,26.5545,-82.1715,1.41,36.82,1111122 
SCCF RECON,ioos:station:SCCF:51:1,2009-05-02T08:00:00Z,26.5545,-82.1715,1.45,36.83,1111122 
SCCF RECON,ioos:station:SCCF:51:1,2009-05-02T09:00:00Z,26.5545,-82.1715,1.528,36.84,1111122 
SCCF RECON,ioos:station:SCCF:51:1,2009-05-02T10:00:00Z,26.5545,-82.1715,1.631,36.75,1111122 
SCCF RECON,ioos:station:SCCF:51:1,2009-05-02T11:00:00Z,26.5545,-82.1715,1.726,36.89,1111122 
SCCF RECON,ioos:station:SCCF:51:1,2009-05-02T12:00:00Z,26.5545,-82.1715,1.804,36.75,1111122 
SCCF RECON,ioos:station:SCCF:51:1,2009-05-02T13:00:00Z,26.5545,-82.1715,1.859,36.89,1111122 
SCCF RECON,ioos:station:SCCF:51:1,2009-05-02T14:00:00Z,26.5545,-82.1715,1.882,36.89,1111122 
SCCF RECON,ioos:station:SCCF:51:1,2009-05-02T15:00:00Z,26.5545,-82.1715,1.872,36.78,1111122 
SCCF RECON,ioos:station:SCCF:51:1,2009-05-02T16:00:00Z,26.5545,-82.1715,1.828,36.72,1111122 
SCCF RECON,ioos:station:SCCF:51:1,2009-05-02T17:00:00Z,26.5545,-82.1715,1.776,36.72,1111122 
SCCF RECON,ioos:station:SCCF:51:1,2009-05-02T18:00:00Z,26.5545,-82.1715,1.732,36.75,1111122 
SCCF RECON,ioos:station:SCCF:51:1,2009-05-02T19:00:00Z,26.5545,-82.1715,1.724,36.75,1111122 
SCCF RECON,ioos:station:SCCF:51:1,2009-05-02T20:00:00Z,26.5545,-82.1715,1.755,36.73,1111122 
SCCF RECON,ioos:station:SCCF:51:1,2009-05-02T21:00:00Z,26.5545,-82.1715,1.805,36.8,1111122 
SCCF RECON,ioos:station:SCCF:51:1,2009-05-02T22:00:00Z,26.5545,-82.1715,1.854,36.88,1111122 
SCCF RECON,ioos:station:SCCF:51:1,2009-05-02T23:00:00Z,26.5545,-82.1715,1.92,36.9,1111122 
SCCF RECON,ioos:station:SCCF:51:1,2009-05-03T00:00:00Z,26.5545,-82.1715,1.949,36.87,1111122 
SCCF RECON,ioos:station:SCCF:51:1,2009-05-03T01:00:00Z,26.5545,-82.1715,1.941,36.88,1111122 
SCCF RECON,ioos:station:SCCF:51:1,2009-05-03T02:00:00Z,26.5545,-82.1715,1.901,36.88,1111122 
SCCF RECON,ioos:station:SCCF:51:1,2009-05-03T03:00:00Z,26.5545,-82.1715,1.85,36.82,1111122 
SCCF RECON,ioos:station:SCCF:51:1,2009-05-03T04:00:00Z,26.5545,-82.1715,1.78,36.77,1111122 
SCCF RECON,ioos:station:SCCF:51:1,2009-05-03T05:00:00Z,26.5545,-82.1715,1.695,36.84,1111122 
SCCF RECON,ioos:station:SCCF:51:1,2009-05-03T06:00:00Z,26.5545,-82.1715,1.615,36.9,1111122 
SCCF RECON,ioos:station:SCCF:51:1,2009-05-03T07:00:00Z,26.5545,-82.1715,1.544,36.89,1111122 
SCCF RECON,ioos:station:SCCF:51:1,2009-05-03T08:00:00Z,26.5545,-82.1715,1.505,36.88,1111122 
SCCF RECON,ioos:station:SCCF:51:1,2009-05-03T09:00:00Z,26.5545,-82.1715,1.55,36.91,1111122 
SCCF RECON,ioos:station:SCCF:51:1,2009-05-03T10:00:00Z,26.5545,-82.1715,1.644,36.9,1111122 
SCCF RECON,ioos:station:SCCF:51:1,2009-05-03T11:00:00Z,26.5545,-82.1715,1.766,36.86,1111122 
SCCF RECON,ioos:station:SCCF:51:1,2009-05-03T12:00:00Z,26.5545,-82.1715,1.867,36.82,1111122 
SCCF RECON,ioos:station:SCCF:51:1,2009-05-03T13:00:00Z,26.5545,-82.1715,1.945,36.86,1111122 
SCCF RECON,ioos:station:SCCF:51:1,2009-05-03T14:00:00Z,26.5545,-82.1715,2.0,36.82,1111122 
SCCF RECON,ioos:station:SCCF:51:1,2009-05-03T15:00:00Z,26.5545,-82.1715,2.002,36.81,1111122 
SCCF RECON,ioos:station:SCCF:51:1,2009-05-03T16:00:00Z,26.5545,-82.1715,1.961,36.79,1111122 
SCCF RECON,ioos:station:SCCF:51:1,2009-05-03T17:00:00Z,26.5545,-82.1715,1.887,36.75,1111122 
SCCF RECON,ioos:station:SCCF:51:1,2009-05-03T18:00:00Z,26.5545,-82.1715,1.817,36.72,1111122 
SCCF RECON,ioos:station:SCCF:51:1,2009-05-03T19:00:00Z,26.5545,-82.1715,1.729,36.69,1111122 
SCCF RECON,ioos:station:SCCF:51:1,2009-05-03T20:00:00Z,26.5545,-82.1715,1.682,36.64,1111122 
SCCF RECON,ioos:station:SCCF:51:1,2009-05-03T21:00:00Z,26.5545,-82.1715,1.712,36.64,1111122 
SCCF RECON,ioos:station:SCCF:51:1,2009-05-03T22:00:00Z,26.5545,-82.1715,1.779,36.6,1111122 
SCCF RECON,ioos:station:SCCF:51:1,2009-05-03T23:00:00Z,26.5545,-82.1715,1.86,36.96,1111122 
SCCF RECON,ioos:station:SCCF:51:1,2009-05-04T00:00:00Z,26.5545,-82.1715,1.944,37.04,1111122 
SCCF RECON,ioos:station:SCCF:51:1,2009-05-04T01:00:00Z,26.5545,-82.1715,1.989,37.04,1111122 
SCCF RECON,ioos:station:SCCF:51:1,2009-05-04T02:00:00Z,26.5545,-82.1715,1.98,37.03,1111122 
SCCF RECON,ioos:station:SCCF:51:1,2009-05-04T03:00:00Z,26.5545,-82.1715,1.932,36.85,1111122 
SCCF RECON,ioos:station:SCCF:51:1,2009-05-04T04:00:00Z,26.5545,-82.1715,1.882,36.62,1111122 
SCCF RECON,ioos:station:SCCF:51:1,2009-05-04T05:00:00Z,26.5545,-82.1715,1.809,36.6,1111122 
SCCF RECON,ioos:station:SCCF:51:1,2009-05-04T06:00:00Z,26.5545,-82.1715,1.716,36.59,1111122 
SCCF RECON,ioos:station:SCCF:51:1,2009-05-04T07:00:00Z,26.5545,-82.1715,1.625,36.52,1111122 
SCCF RECON,ioos:station:SCCF:51:1,2009-05-04T08:00:00Z,26.5545,-82.1715,1.55,36.48,1111122 
SCCF RECON,ioos:station:SCCF:51:1,2009-05-04T09:00:00Z,26.5545,-82.1715,1.519,36.5,1111122 
SCCF RECON,ioos:station:SCCF:51:1,2009-05-04T10:00:00Z,26.5545,-82.1715,1.579,36.49,1111122 
SCCF RECON,ioos:station:SCCF:51:1,2009-05-04T11:00:00Z,26.5545,-82.1715,1.671,36.56,1111122 
SCCF RECON,ioos:station:SCCF:51:1,2009-05-04T12:00:00Z,26.5545,-82.1715,1.782,36.86,1111122 
SCCF RECON,ioos:station:SCCF:51:1,2009-05-04T13:00:00Z,26.5545,-82.1715,1.878,36.92,1111122 
SCCF RECON,ioos:station:SCCF:51:1,2009-05-04T14:00:00Z,26.5545,-82.1715,1.951,36.87,1111122 
SCCF RECON,ioos:station:SCCF:51:1,2009-05-04T15:00:00Z,26.5545,-82.1715,1.99,37.01,1111122 
SCCF RECON,ioos:station:SCCF:51:1,2009-05-04T16:00:00Z,26.5545,-82.1715,1.967,36.82,1111122 
SCCF RECON,ioos:station:SCCF:51:1,2009-05-04T17:00:00Z,26.5545,-82.1715,1.903,36.61,1111122 
SCCF RECON,ioos:station:SCCF:51:1,2009-05-04T18:00:00Z,26.5545,-82.1715,1.815,36.53,1111122 
SCCF RECON,ioos:station:SCCF:51:1,2009-05-04T19:00:00Z,26.5545,-82.1715,1.71,36.56,1111122 
SCCF RECON,ioos:station:SCCF:51:1,2009-05-04T20:00:00Z,26.5545,-82.1715,1.61,36.49,1111122 
SCCF RECON,ioos:station:SCCF:51:1,2009-05-04T21:00:00Z,26.5545,-82.1715,1.56,36.51,1111122 
SCCF RECON,ioos:station:SCCF:51:1,2009-05-04T22:00:00Z,26.5545,-82.1715,1.589,36.52,1111122 
SCCF RECON,ioos:station:SCCF:51:1,2009-05-04T23:00:00Z,26.5545,-82.1715,1.642,36.6,1111122 
SCCF RECON,ioos:station:SCCF:51:1,2009-05-05T00:00:00Z,26.5545,-82.1715,1.72,36.56,1111122 
SCCF RECON,ioos:station:SCCF:51:1,2009-05-05T01:00:00Z,26.5545,-82.1715,1.81,36.98,1111122 
SCCF RECON,ioos:station:SCCF:51:1,2009-05-05T02:00:00Z,26.5545,-82.1715,1.87,36.95,1111122 
SCCF RECON,ioos:station:SCCF:51:1,2009-05-05T03:00:00Z,26.5545,-82.1715,1.9,36.94,1111122 
SCCF RECON,ioos:station:SCCF:51:1,2009-05-05T04:00:00Z,26.5545,-82.1715,1.901,36.95,1111122 
SCCF RECON,ioos:station:SCCF:51:1,2009-05-05T05:00:00Z,26.5545,-82.1715,1.86,36.81,1111122 
SCCF RECON,ioos:station:SCCF:51:1,2009-05-05T06:00:00Z,26.5545,-82.1715,1.79,36.66,1111122 
SCCF RECON,ioos:station:SCCF:51:1,2009-05-05T07:00:00Z,26.5545,-82.1715,1.73,36.54,1111122 
SCCF RECON,ioos:station:SCCF:51:1,2009-05-05T08:00:00Z,26.5545,-82.1715,1.646,36.53,1111122 
SCCF RECON,ioos:station:SCCF:51:1,2009-05-05T09:00:00Z,26.5545,-82.1715,1.585,36.55,1111122 
SCCF RECON,ioos:station:SCCF:51:1,2009-05-05T10:00:00Z,26.5545,-82.1715,1.579,36.55,1111122 
SCCF RECON,ioos:station:SCCF:51:1,2009-05-05T11:00:00Z,26.5545,-82.1715,1.642,36.55,1111122 
SCCF RECON,ioos:station:SCCF:51:1,2009-05-05T12:00:00Z,26.5545,-82.1715,1.749,36.54,1111122 
SCCF RECON,ioos:station:SCCF:51:1,2009-05-05T13:00:00Z,26.5545,-82.1715,1.86,36.93,1111122 
SCCF RECON,ioos:station:SCCF:51:1,2009-05-05T14:00:00Z,26.5545,-82.1715,1.966,36.73,1111122 
SCCF RECON,ioos:station:SCCF:51:1,2009-05-05T15:00:00Z,26.5545,-82.1715,2.03,36.96,1111122 
SCCF RECON,ioos:station:SCCF:51:1,2009-05-05T16:00:00Z,26.5545,-82.1715,2.034,36.92,1111122 
SCCF RECON,ioos:station:SCCF:51:1,2009-05-05T17:00:00Z,26.5545,-82.1715,1.965,36.82,1111122 
SCCF RECON,ioos:station:SCCF:51:1,2009-05-05T18:00:00Z,26.5545,-82.1715,1.86,36.68,1111122 
SCCF RECON,ioos:station:SCCF:51:1,2009-05-05T19:00:00Z,26.5545,-82.1715,1.737,36.51,1111122 
SCCF RECON,ioos:station:SCCF:51:1,2009-05-05T20:00:00Z,26.5545,-82.1715,1.62,36.48,1111122 
SCCF RECON,ioos:station:SCCF:51:1,2009-05-05T21:00:00Z,26.5545,-82.1715,1.524,36.47,1111122 
SCCF RECON,ioos:station:SCCF:51:1,2009-05-05T22:00:00Z,26.5545,-82.1715,1.476,36.5,1111122 
SCCF RECON,ioos:station:SCCF:51:1,2009-05-05T23:00:00Z,26.5545,-82.1715,1.514,36.54,1111122 
SCCF RECON,ioos:station:SCCF:51:1,2009-05-06T00:00:00Z,26.5545,-82.1715,1.59,36.54,1111122 
SCCF RECON,ioos:station:SCCF:51:1,2009-05-06T01:00:00Z,26.5545,-82.1715,1.69,36.76,1111122 
SCCF RECON,ioos:station:SCCF:51:1,2009-05-06T02:00:00Z,26.5545,-82.1715,1.8,36.86,1111122 
SCCF RECON,ioos:station:SCCF:51:1,2009-05-06T03:00:00Z,26.5545,-82.1715,1.89,36.89,1111122 
SCCF RECON,ioos:station:SCCF:51:1,2009-05-06T04:00:00Z,26.5545,-82.1715,1.94,36.86,1111122 
SCCF RECON,ioos:station:SCCF:51:1,2009-05-06T05:00:00Z,26.5545,-82.1715,1.92,36.84,1111122 
SCCF RECON,ioos:station:SCCF:51:1,2009-05-06T06:00:00Z,26.5545,-82.1715,1.87,36.79,1111122 
SCCF RECON,ioos:station:SCCF:51:1,2009-05-06T07:00:00Z,26.5545,-82.1715,1.773,36.61,1111122 
SCCF RECON,ioos:station:SCCF:51:1,2009-05-06T08:00:00Z,26.5545,-82.1715,1.68,36.57,1111122 
SCCF RECON,ioos:station:SCCF:51:1,2009-05-06T09:00:00Z,26.5545,-82.1715,1.61,36.53,1111122 
SCCF RECON,ioos:station:SCCF:51:1,2009-05-06T10:00:00Z,26.5545,-82.1715,1.595,36.53,1111122 
SCCF RECON,ioos:station:SCCF:51:1,2009-05-06T11:00:00Z,26.5545,-82.1715,1.634,36.57,1111122 
SCCF RECON,ioos:station:SCCF:51:1,2009-05-06T12:00:00Z,26.5545,-82.1715,1.707,36.59,1111122 
SCCF RECON,ioos:station:SCCF:51:1,2009-05-06T13:00:00Z,26.5545,-82.1715,1.81,36.88,1111122 
SCCF RECON,ioos:station:SCCF:51:1,2009-05-06T14:00:00Z,26.5545,-82.1715,1.921,36.91,1111122 
SCCF RECON,ioos:station:SCCF:51:1,2009-05-06T15:00:00Z,26.5545,-82.1715,2.003,36.76,1111122 
SCCF RECON,ioos:station:SCCF:51:1,2009-05-06T16:00:00Z,26.5545,-82.1715,2.025,36.89,1111122 
SCCF RECON,ioos:station:SCCF:51:1,2009-05-06T17:00:00Z,26.5545,-82.1715,1.972,36.83,1111122 
SCCF RECON,ioos:station:SCCF:51:1,2009-05-06T18:00:00Z,26.5545,-82.1715,1.888,36.66,1111122 
SCCF RECON,ioos:station:SCCF:51:1,2009-05-06T19:00:00Z,26.5545,-82.1715,1.772,36.56,1111122 
SCCF RECON,ioos:station:SCCF:51:1,2009-05-06T20:00:00Z,26.5545,-82.1715,1.642,36.54,1111122 
SCCF RECON,ioos:station:SCCF:51:1,2009-05-06T21:00:00Z,26.5545,-82.1715,1.52,36.69,1111122 
SCCF RECON,ioos:station:SCCF:51:1,2009-05-06T22:00:00Z,26.5545,-82.1715,1.448,36.64,1111122 
SCCF RECON,ioos:station:SCCF:51:1,2009-05-06T23:00:00Z,26.5545,-82.1715,1.39,36.59,1111122 
SCCF RECON,ioos:station:SCCF:51:1,2009-05-07T00:00:00Z,26.5545,-82.1715,1.43,36.52,1111122 
SCCF RECON,ioos:station:SCCF:51:1,2009-05-07T01:00:00Z,26.5545,-82.1715,1.53,36.58,1111122 
SCCF RECON,ioos:station:SCCF:51:1,2009-05-07T02:00:00Z,26.5545,-82.1715,1.66,36.8,1111122 
SCCF RECON,ioos:station:SCCF:51:1,2009-05-07T03:00:00Z,26.5545,-82.1715,1.78,36.85,1111122 
SCCF RECON,ioos:station:SCCF:51:1,2009-05-07T04:00:00Z,26.5545,-82.1715,1.87,36.88,1111122 
SCCF RECON,ioos:station:SCCF:51:1,2009-05-07T05:00:00Z,26.5545,-82.1715,1.91,36.87,1111122 
SCCF RECON,ioos:station:SCCF:51:1,2009-05-07T06:00:00Z,26.5545,-82.1715,1.88,36.83,1111122 
SCCF RECON,ioos:station:SCCF:51:1,2009-05-07T07:00:00Z,26.5545,-82.1715,1.815,36.8,1111122 
SCCF RECON,ioos:station:SCCF:51:1,2009-05-07T08:00:00Z,26.5545,-82.1715,1.74,36.69,1111122 
SCCF RECON,ioos:station:SCCF:51:1,2009-05-07T09:00:00Z,26.5545,-82.1715,1.67,36.57,1111122 
SCCF RECON,ioos:station:SCCF:51:1,2009-05-07T10:00:00Z,26.5545,-82.1715,1.63,36.55,1111122 
SCCF RECON,ioos:station:SCCF:51:1,2009-05-07T11:00:00Z,26.5545,-82.1715,1.641,36.55,1111122 
SCCF RECON,ioos:station:SCCF:51:1,2009-05-07T12:00:00Z,26.5545,-82.1715,1.703,36.61,1111122 
SCCF RECON,ioos:station:SCCF:51:1,2009-05-07T13:00:00Z,26.5545,-82.1715,1.799,36.8,1111122 
SCCF RECON,ioos:station:SCCF:51:1,2009-05-07T14:00:00Z,26.5545,-82.1715,1.9,36.92,1111122 
SCCF RECON,ioos:station:SCCF:51:1,2009-05-07T15:00:00Z,26.5545,-82.1715,1.991,36.91,1111122 
SCCF RECON,ioos:station:SCCF:51:1,2009-05-07T16:00:00Z,26.5545,-82.1715,2.021,36.91,1111122 
SCCF RECON,ioos:station:SCCF:51:1,2009-05-07T17:00:00Z,26.5545,-82.1715,1.977,36.89,1111122 
SCCF RECON,ioos:station:SCCF:51:1,2009-05-07T18:00:00Z,26.5545,-82.1715,1.899,36.87,1111122 
SCCF RECON,ioos:station:SCCF:51:1,2009-05-07T19:00:00Z,26.5545,-82.1715,1.79,36.71,1111122 
SCCF RECON,ioos:station:SCCF:51:1,2009-05-07T20:00:00Z,26.5545,-82.1715,1.66,36.68,1111122 
SCCF RECON,ioos:station:SCCF:51:1,2009-05-07T21:00:00Z,26.5545,-82.1715,1.531,36.72,1111122 
SCCF RECON,ioos:station:SCCF:51:1,2009-05-07T22:00:00Z,26.5545,-82.1715,1.416,36.78,1111122 
SCCF RECON,ioos:station:SCCF:51:1,2009-05-07T23:00:00Z,26.5545,-82.1715,1.327,36.78,1111122 
SCCF RECON,ioos:station:SCCF:51:1,2009-05-08T00:00:00Z,26.5545,-82.1715,1.288,36.78,1111122 
SCCF RECON,ioos:station:SCCF:51:1,2009-05-08T01:00:00Z,26.5545,-82.1715,1.359,36.7,1111122 
SCCF RECON,ioos:station:SCCF:51:1,2009-05-08T02:00:00Z,26.5545,-82.1715,1.463,36.86,1111122 
SCCF RECON,ioos:station:SCCF:51:1,2009-05-08T03:00:00Z,26.5545,-82.1715,1.59,36.89,1111122 
SCCF RECON,ioos:station:SCCF:51:1,2009-05-08T04:00:00Z,26.5545,-82.1715,1.706,36.95,1111122 
SCCF RECON,ioos:station:SCCF:51:1,2009-05-08T05:00:00Z,26.5545,-82.1715,1.79,36.96,1111122 
SCCF RECON,ioos:station:SCCF:51:1,2009-05-08T06:00:00Z,26.5545,-82.1715,1.84,36.95,1111122 
SCCF RECON,ioos:station:SCCF:51:1,2009-05-08T07:00:00Z,26.5545,-82.1715,1.816,36.82,1111122 
SCCF RECON,ioos:station:SCCF:51:1,2009-05-08T08:00:00Z,26.5545,-82.1715,1.75,36.77,1111122 
SCCF RECON,ioos:station:SCCF:51:1,2009-05-08T09:00:00Z,26.5545,-82.1715,1.7,36.9,1111122 
SCCF RECON,ioos:station:SCCF:51:1,2009-05-08T10:00:00Z,26.5545,-82.1715,1.67,36.85,1111122 
SCCF RECON,ioos:station:SCCF:51:1,2009-05-08T11:00:00Z,26.5545,-82.1715,1.67,36.83,1111122 
SCCF RECON,ioos:station:SCCF:51:1,2009-05-08T12:00:00Z,26.5545,-82.1715,1.72,36.92,1111122 
SCCF RECON,ioos:station:SCCF:51:1,2009-05-08T13:00:00Z,26.5545,-82.1715,1.774,36.85,1111122 
SCCF RECON,ioos:station:SCCF:51:1,2009-05-08T14:00:00Z,26.5545,-82.1715,1.865,36.94,1111122 
SCCF RECON,ioos:station:SCCF:51:1,2009-05-08T15:00:00Z,26.5545,-82.1715,1.98,36.98,1111122 
SCCF RECON,ioos:station:SCCF:51:1,2009-05-08T16:00:00Z,26.5545,-82.1715,2.066,36.97,1111122 
SCCF RECON,ioos:station:SCCF:51:1,2009-05-08T17:00:00Z,26.5545,-82.1715,2.079,36.97,1111122 
SCCF RECON,ioos:station:SCCF:51:1,2009-05-08T18:00:00Z,26.5545,-82.1715,2.021,36.94,1111122 
SCCF RECON,ioos:station:SCCF:51:1,2009-05-08T19:00:00Z,26.5545,-82.1715,1.916,36.9,1111122 
SCCF RECON,ioos:station:SCCF:51:1,2009-05-08T20:00:00Z,26.5545,-82.1715,1.783,36.85,1111122 
SCCF RECON,ioos:station:SCCF:51:1,2009-05-08T21:00:00Z,26.5545,-82.1715,1.645,36.83,1111122 
SCCF RECON,ioos:station:SCCF:51:1,2009-05-08T22:00:00Z,26.5545,-82.1715,1.52,36.93,1111122 
SCCF RECON,ioos:station:SCCF:51:1,2009-05-08T23:00:00Z,26.5545,-82.1715,1.414,36.98,1111122 
SCCF RECON,ioos:station:SCCF:51:1,2009-05-09T00:00:00Z,26.5545,-82.1715,1.331,36.99,1111122 
SCCF RECON,ioos:station:SCCF:51:1,2009-05-09T01:00:00Z,26.5545,-82.1715,1.33,37.0,1111122 
SCCF RECON,ioos:station:SCCF:51:1,2009-05-09T02:00:00Z,26.5545,-82.1715,1.425,36.96,1111122 
SCCF RECON,ioos:station:SCCF:51:1,2009-05-09T03:00:00Z,26.5545,-82.1715,1.532,36.89,1111122 
SCCF RECON,ioos:station:SCCF:51:1,2009-05-09T04:00:00Z,26.5545,-82.1715,1.66,36.99,1111122 
SCCF RECON,ioos:station:SCCF:51:1,2009-05-09T05:00:00Z,26.5545,-82.1715,1.772,37.02,1111122 
SCCF RECON,ioos:station:SCCF:51:1,2009-05-09T06:00:00Z,26.5545,-82.1715,1.84,36.99,1111122 
SCCF RECON,ioos:station:SCCF:51:1,2009-05-09T07:00:00Z,26.5545,-82.1715,1.86,36.93,1111122 
SCCF RECON,ioos:station:SCCF:51:1,2009-05-09T08:00:00Z,26.5545,-82.1715,1.84,36.94,1111122 
SCCF RECON,ioos:station:SCCF:51:1,2009-05-09T09:00:00Z,26.5545,-82.1715,1.79,36.92,1111122 
SCCF RECON,ioos:station:SCCF:51:1,2009-05-09T10:00:00Z,26.5545,-82.1715,1.77,36.95,1111122 
SCCF RECON,ioos:station:SCCF:51:1,2009-05-09T11:00:00Z,26.5545,-82.1715,1.78,36.97,1111122 
SCCF RECON,ioos:station:SCCF:51:1,2009-05-09T12:00:00Z,26.5545,-82.1715,1.81,36.95,1111122 
SCCF RECON,ioos:station:SCCF:51:1,2009-05-09T13:00:00Z,26.5545,-82.1715,1.861,36.96,1111122 
SCCF RECON,ioos:station:SCCF:51:1,2009-05-09T14:00:00Z,26.5545,-82.1715,1.94,36.94,1111122 
SCCF RECON,ioos:station:SCCF:51:1,2009-05-09T15:00:00Z,26.5545,-82.1715,2.029,37.02,1111122 
SCCF RECON,ioos:station:SCCF:51:1,2009-05-09T16:00:00Z,26.5545,-82.1715,2.121,37.03,1111122 
SCCF RECON,ioos:station:SCCF:51:1,2009-05-09T17:00:00Z,26.5545,-82.1715,2.14,37.03,1111122 
SCCF RECON,ioos:station:SCCF:51:1,2009-05-09T18:00:00Z,26.5545,-82.1715,2.09,37.01,1111122 
SCCF RECON,ioos:station:SCCF:51:1,2009-05-09T19:00:00Z,26.5545,-82.1715,1.993,36.96,1111122 
SCCF RECON,ioos:station:SCCF:51:1,2009-05-09T20:00:00Z,26.5545,-82.1715,1.869,36.94,1111122 
SCCF RECON,ioos:station:SCCF:51:1,2009-05-09T21:00:00Z,26.5545,-82.1715,1.729,37.07,1111122 
SCCF RECON,ioos:station:SCCF:51:1,2009-05-09T22:00:00Z,26.5545,-82.1715,1.593,37.07,1111122 
SCCF RECON,ioos:station:SCCF:51:1,2009-05-09T23:00:00Z,26.5545,-82.1715,1.468,37.05,1111122 
SCCF RECON,ioos:station:SCCF:51:1,2009-05-10T00:00:00Z,26.5545,-82.1715,1.36,37.04,1111122 
SCCF RECON,ioos:station:SCCF:51:1,2009-05-10T01:00:00Z,26.5545,-82.1715,1.287,37.11,1111122 
SCCF RECON,ioos:station:SCCF:51:1,2009-05-10T02:00:00Z,26.5545,-82.1715,1.307,37.18,1111122 
SCCF RECON,ioos:station:SCCF:51:1,2009-05-10T03:00:00Z,26.5545,-82.1715,1.4,37.1,1111122 
SCCF RECON,ioos:station:SCCF:51:1,2009-05-10T04:00:00Z,26.5545,-82.1715,1.527,37.11,1111122 
SCCF RECON,ioos:station:SCCF:51:1,2009-05-10T05:00:00Z,26.5545,-82.1715,1.641,37.06,1111122 
SCCF RECON,ioos:station:SCCF:51:1,2009-05-10T06:00:00Z,26.5545,-82.1715,1.74,37.07,1111122 
SCCF RECON,ioos:station:SCCF:51:1,2009-05-10T07:00:00Z,26.5545,-82.1715,1.8,37.07,1111122 
SCCF RECON,ioos:station:SCCF:51:1,2009-05-10T08:00:00Z,26.5545,-82.1715,1.801,37.06,1111122 
SCCF RECON,ioos:station:SCCF:51:1,2009-05-10T09:00:00Z,26.5545,-82.1715,1.762,37.04,1111122 
SCCF RECON,ioos:station:SCCF:51:1,2009-05-10T10:00:00Z,26.5545,-82.1715,1.731,37.05,1111122 
SCCF RECON,ioos:station:SCCF:51:1,2009-05-10T11:00:00Z,26.5545,-82.1715,1.714,37.07,1111122 
SCCF RECON,ioos:station:SCCF:51:1,2009-05-10T12:00:00Z,26.5545,-82.1715,1.713,37.08,1111122 
SCCF RECON,ioos:station:SCCF:51:1,2009-05-10T13:00:00Z,26.5545,-82.1715,1.752,37.06,1111122 
SCCF RECON,ioos:station:SCCF:51:1,2009-05-10T14:00:00Z,26.5545,-82.1715,1.811,37.07,1111122 
SCCF RECON,ioos:station:SCCF:51:1,2009-05-10T15:00:00Z,26.5545,-82.1715,1.89,37.13,1111122 
SCCF RECON,ioos:station:SCCF:51:1,2009-05-10T16:00:00Z,26.5545,-82.1715,1.983,37.16,1111122 
SCCF RECON,ioos:station:SCCF:51:1,2009-05-10T17:00:00Z,26.5545,-82.1715,2.053,37.17,1111122 
SCCF RECON,ioos:station:SCCF:51:1,2009-05-10T18:00:00Z,26.5545,-82.1715,2.055,37.16,1111122 
SCCF RECON,ioos:station:SCCF:51:1,2009-05-10T19:00:00Z,26.5545,-82.1715,1.988,37.15,1111122 
SCCF RECON,ioos:station:SCCF:51:1,2009-05-10T20:00:00Z,26.5545,-82.1715,1.896,37.13,1111122 
SCCF RECON,ioos:station:SCCF:51:1,2009-05-10T21:00:00Z,26.5545,-82.1715,1.771,37.12,1111122 
SCCF RECON,ioos:station:SCCF:51:1,2009-05-10T22:00:00Z,26.5545,-82.1715,1.635,37.15,1111122 
SCCF RECON,ioos:station:SCCF:51:1,2009-05-10T23:00:00Z,26.5545,-82.1715,1.508,37.2,1111122 
SCCF RECON,ioos:station:SCCF:51:1,2009-05-11T00:00:00Z,26.5545,-82.1715,1.399,37.25,1111122 
SCCF RECON,ioos:station:SCCF:51:1,2009-05-11T01:00:00Z,26.5545,-82.1715,1.315,37.28,1111122 
SCCF RECON,ioos:station:SCCF:51:1,2009-05-11T02:00:00Z,26.5545,-82.1715,1.282,37.28,1111122 
SCCF RECON,ioos:station:SCCF:51:1,2009-05-11T03:00:00Z,26.5545,-82.1715,1.355,37.23,1111122 
SCCF RECON,ioos:station:SCCF:51:1,2009-05-11T04:00:00Z,26.5545,-82.1715,1.451,37.22,1111122 
SCCF RECON,ioos:station:SCCF:51:1,2009-05-11T05:00:00Z,26.5545,-82.1715,1.56,37.22,1111122 
SCCF RECON,ioos:station:SCCF:51:1,2009-05-11T06:00:00Z,26.5545,-82.1715,1.666,37.13,1111122 
SCCF RECON,ioos:station:SCCF:51:1,2009-05-11T07:00:00Z,26.5545,-82.1715,1.74,37.13,1111122 
SCCF RECON,ioos:station:SCCF:51:1,2009-05-11T08:00:00Z,26.5545,-82.1715,1.787,37.11,1111122 
SCCF RECON,ioos:station:SCCF:51:1,2009-05-11T09:00:00Z,26.5545,-82.1715,1.784,37.16,1111122 
SCCF RECON,ioos:station:SCCF:51:1,2009-05-11T10:00:00Z,26.5545,-82.1715,1.745,37.22,1111122 
SCCF RECON,ioos:station:SCCF:51:1,2009-05-11T11:00:00Z,26.5545,-82.1715,1.709,37.21,1111122 
SCCF RECON,ioos:station:SCCF:51:1,2009-05-11T12:00:00Z,26.5545,-82.1715,1.7,37.22,1111122 
SCCF RECON,ioos:station:SCCF:51:1,2009-05-11T13:00:00Z,26.5545,-82.1715,1.742,37.26,1111122 
SCCF RECON,ioos:station:SCCF:51:1,2009-05-11T14:00:00Z,26.5545,-82.1715,1.796,37.18,1111122 
SCCF RECON,ioos:station:SCCF:51:1,2009-05-11T15:00:00Z,26.5545,-82.1715,1.88,37.14,1111122 
SCCF RECON,ioos:station:SCCF:51:1,2009-05-11T16:00:00Z,26.5545,-82.1715,1.978,37.04,1111122 
SCCF RECON,ioos:station:SCCF:51:1,2009-05-11T17:00:00Z,26.5545,-82.1715,2.042,37.11,1111122 